Home   Weather   Vasai-Virar   Past weeks

Flag for India Past Weather in Vasai-Virar, Maharashtra, India — Yesterday and Last 2 Weeks

Now
73 °F

Clear.


Feels Like: 76 °F
Forecast: 69 / 89 °F
Wind: No wind

Location: Mumbai / Santacruz

Current Time: Jan 19, 2017 at 4:03:57 am

Latest Report: Jan 19, 2017 at 3:30 am


Visibility: 1 mi

Pressure: 29.92 "Hg

Humidity: 65%

Dew Point: 61 °F

Location of Vasai-VirarLocation

Past Weather in Vasai-Virar — Graph

°F

Vasai-Virar Temperature Yesterday

Maximum temperature yesterday: 86 °F (at 2:30 pm)
Minimum temperature yesterday: 70 °F (at 4:00 am)
Average temperature yesterday: 77 °F

High & Low Weather Summary for the Past Weeks

 TemperatureHumidityPressure
High91 °F (Jan 15, 2:00 pm)83% (Jan 8, 3:00 am)30.04 "Hg (Jan 8, 3:00 am)
Low63 °F (Jan 11, 7:30 am)21% (Jan 4, 1:00 pm)29.77 "Hg (Jan 8, 3:30 pm)
Average76 °F56%29.91 "Hg
* Reported Jan 4 2:30 am — Jan 19 3:00 am, Vasai-Virar, Weather by CustomWeather, © 2017

Note: Actual official high and low records may vary slightly from our data, if they occured in-between our weather recording intervals... More about our weather records

Advertising

Vasai-Virar Weather History for the Previous 24 Hours

Scroll right to see more
 ConditionsComfort  
Time TempWeatherWind HumidityBarometerVisibility
3:00 am
Thu, Jan 19
73 °FClear.No wind65%29.95 "Hg1 mi
2:30 am73 °FClear.No wind65%29.95 "Hg1 mi
2:00 am73 °FClear.No wind65%29.95 "Hg1 mi
1:30 am73 °FClear.No wind65%29.98 "Hg1 mi
1:00 am75 °FClear.No wind61%29.98 "Hg1 mi
12:30 am75 °FClear.3 mph61%29.98 "Hg1 mi
12:00 am75 °FClear.No wind61%29.98 "Hg1 mi
11:30 pm
Wed, Jan 18
75 °FClear.3 mph61%29.98 "Hg1 mi
11:00 pm75 °FClear.3 mph61%30.01 "Hg1 mi
10:30 pm77 °FClear.3 mph57%30.01 "Hg1 mi
10:00 pm79 °FClear.5 mph54%30.01 "Hg1 mi
9:30 pm79 °FClear.5 mph54%30.01 "Hg1 mi
9:00 pm77 °FClear.3 mph61%29.98 "Hg1 mi
8:30 pm79 °FClear.5 mph54%29.98 "Hg1 mi
8:00 pm79 °FClear.6 mph54%29.98 "Hg1 mi
7:30 pm79 °FClear.6 mph51%29.95 "Hg1 mi
7:00 pm79 °FClear.6 mph54%29.95 "Hg1 mi
6:30 pm79 °FClear.7 mph54%29.95 "Hg1 mi
6:00 pm81 °FClear.6 mph51%29.92 "Hg1 mi
5:30 pm81 °FClear.7 mph51%29.92 "Hg1 mi
5:00 pm82 °FClear.9 mph42%29.92 "Hg1 mi
4:30 pm84 °FClear.8 mph37%29.92 "Hg1 mi
4:00 pm84 °FClear.8 mph43%29.92 "Hg1 mi
3:30 pm84 °FClear.9 mph43%29.92 "Hg1 mi
3:00 pm84 °FClear.10 mph43%29.92 "Hg1 mi
2:30 pm86 °FClear.8 mph40%29.92 "Hg1 mi
2:00 pm84 °FClear.8 mph43%29.92 "Hg1 mi
1:30 pm84 °FClear.9 mph43%29.95 "Hg1 mi
1:00 pm84 °FClear.10 mph43%29.98 "Hg1 mi
12:30 pm84 °FClear.8 mph37%29.98 "Hg1 mi
12:00 pm84 °FClear.5 mph33%30.01 "Hg1 mi
11:30 am82 °FClear.3 mph37%30.01 "Hg1 mi
11:00 am79 °FClear.6 mph42%30.01 "Hg1 mi
10:30 am79 °FClear.No wind45%30.04 "Hg1 mi
10:00 am77 °FClear.3 mph47%30.04 "Hg1 mi
9:30 am73 °FClear.No wind53%30.04 "Hg1 mi
8:30 am70 °FClear.No wind57%30.01 "Hg1 mi
8:00 am70 °FClear.5 mph60%30.01 "Hg1 mi
7:30 am70 °FClear.6 mph60%29.98 "Hg1 mi
7:00 am70 °FClear.No wind60%29.98 "Hg1 mi
6:30 am70 °FClear.No wind60%29.95 "Hg1 mi
6:00 am70 °FClear.5 mph60%29.95 "Hg1 mi
5:30 am70 °FClear.5 mph60%29.92 "Hg1 mi
5:00 am70 °FClear.No wind60%29.92 "Hg1 mi
4:30 am70 °FClear.No wind60%29.92 "Hg1 mi
4:00 am70 °FClear.No wind60%29.92 "Hg1 mi
Weather by CustomWeather, © 2017

See weather overviewHow to use our weather pages